[Iaude] MPEC E66: 2024 EO1 [a=2.46,e=0.65,i=18.6,H=22.5]

mpec at cfa.harvard.edu mpec at cfa.harvard.edu
Tue Mar 5 18:20:02 EST 2024


M.P.E.C. 2024-E66                                 Issued 2024 March 5, 23:18 UT

     The Minor Planet Electronic Circulars contain information on unusual
         minor planets, routine data on comets and natural satellites,
         and occasional editorial announcements.  They are published
    on behalf of Division F of the International Astronomical Union by the
          Minor Planet Center, Smithsonian Astrophysical Observatory,
                          Cambridge, MA 02138, U.S.A.
			  
             Prepared using the Tamkin Foundation Computer Network

                              MPC at CFA.HARVARD.EDU
            URL https://www.minorplanetcenter.net/    ISSN 1523-6714

                                    2024 EO1                                    


Observations:
     K24E01O  C2024 03 02.54529011 37 38.684+25 18 11.29               VEE066F52
     K24E01O  C2024 03 02.55654411 37 34.138+25 16 22.43               VEE066F52
     K24E01O  C2024 03 02.58056611 37 24.518+25 12 30.70         19.27GVEE066F52
     K24E01O*1C2024 03 05.37383811 22 17.195+18 29 10.10         19.98GVEE066703
     K24E01O 1C2024 03 05.37610711 22 16.511+18 28 49.55         20.29GVEE066703
     K24E01O 1C2024 03 05.37839311 22 15.841+18 28 32.30         19.72GVEE066703
     K24E01O 1C2024 03 05.38067511 22 15.269+18 28 16.43         19.03GVEE066703
     K24E01O  C2024 03 05.39029211 22 12.353+18 27 00.83         19.79GVEE066I52
     K24E01O  C2024 03 05.39054411 22 12.270+18 26 59.17         19.42GVEE066I52
     K24E01O  C2024 03 05.39080211 22 12.205+18 26 57.41         19.27GVEE066I52
     K24E01O  C2024 03 05.39105311 22 12.126+18 26 54.71         19.36GVEE066I52
     K24E01O KB2024 03 05.41476 11 22 04.663+18 23 42.25         19.3 RZEE066H36
     K24E01O KB2024 03 05.41832 11 22 03.660+18 23 15.29         19.3 RZEE066H36
     K24E01O KB2024 03 05.42189 11 22 02.642+18 22 47.14         19.3 RZEE066H36
     K24E01O KB2024 03 05.61224 11 21 14.95 +17 58 33.4          19.3 GVEE066O46
     K24E01O KB2024 03 05.61783 11 21 13.48 +17 57 49.3          20.1 GVEE066O46
     K24E01O KB2024 03 05.62378 11 21 11.70 +17 57 03.3          18.7 GVEE066O46
     K24E01O KB2024 03 05.85379911 20 10.29 +17 27 51.1          19.5 GXEE066958
     K24E01O KB2024 03 05.86146611 20 08.09 +17 26 54.0          19.2 GXEE066958
     K24E01O KB2024 03 05.86414 11 20 07.31 +17 26 35.5          19.5 GXEE066K19
     K24E01O KB2024 03 05.86793 11 20 06.34 +17 26 07.9          18.5 GXEE066K19
     K24E01O KB2024 03 05.86983311 20 05.81 +17 25 53.1          19.6 GXEE066958
     K24E01O KB2024 03 05.87174 11 20 05.28 +17 25 38.6          19.8 GXEE066K19
     K24E01O KC2024 03 05.91286811 19 53.707+17 20 33.25         19.7 GVEE066598
     K24E01O KC2024 03 05.91531911 19 53.026+17 20 15.22         19.8 GVEE066598
     K24E01O KC2024 03 05.91767411 19 52.368+17 19 57.61         19.9 GVEE066598
     K24E01O KB2024 03 05.92769 11 19 48.99 +17 18 42.2          19.3 GXEE066M45
     K24E01O KB2024 03 05.93236 11 19 47.67 +17 18 08.1          19.5 GXEE066M45
     K24E01O KB2024 03 05.93683 11 19 46.45 +17 17 34.6          19.2 GXEE066M45

Observer details:
598 Loiano.  Observer A. Carbognani.  1.52-m f/4.75 Reflector + CCD.
703 Catalina Sky Survey.  Observer K. W. Wierzchos.  Measurers T. Beuden, V.
    F. Carvajal, D. Fay, J. B. Fazekas, D. C. Fuls, A. R. Gibbs, A. D. Grauer,
    H. Groeller, J. K. Hogan, R. A. Kowalski, S. M. Larson, G. J. Leonard, D.
    Rankin, R. L. Seaman, F. C. Shelly, K. W. Wierzchos.  0.68-m Schmidt + 10K
    CCD.
958 Observatoire de Dax.  Observer P. Dupouy.  0.50-m f/4.5 Reflector + CMO.
F52 Pan-STARRS 2, Haleakala.  Observers J. Herman, T. Lowe, P. Minguez, A.
    Schultz, I. Smith.  Measurers K. Chambers, T. de Boer, J. Fairlamb, H.
    Gao, M. Huber, C.-C. Lin, E. Magnier, Y. Ramanjooloo, R. Wainscoat, R.
    Weryk.  1.8-m Ritchey-Chretien + CCD.
H36 Sandlot Observatory, Scranton.  Observer G. Hug.  0.56-m f/4.8 reflector +
    CMO.
I52 Steward Observatory, Mt. Lemmon Station.  Observer J. K. Hogan.  Measurers
    T. Beuden, V. F. Carvajal, D. Fay, J. B. Fazekas, D. C. Fuls, A. R. Gibbs,
    A. D. Grauer, H. Groeller, J. K. Hogan, R. A. Kowalski, S. M. Larson, G.
    J. Leonard, D. Rankin, R. L. Seaman, F. C. Shelly, K. W. Wierzchos.  1.0-m
    prime focus + CCD.
K19 PASTIS Observatory, Banon.  Observer C. Demeautis.  0.28-m f/2.2 reflector
    + CMO.
M45 Starhopper Observatory, Sfantu Gheorghe.  Observer F. Ursache.  0.41-m
    f/7.5 reflector + CMO.
O46 Daocheng Glacier Observatory.  Observer Z. Wang.  0.25-m f/8 reflector +
    CMO.

Orbital elements:
2024 EO1                                                 Earth MOID = 0.1207 AU
Epoch 2024 Mar. 31.0 TT = JDT 2460400.5                 Veres                   
M  20.41959              (2000.0)            P               Q                  
n   0.25603132     Peri.  104.93279     -0.10378171     -0.99321722             
a   2.4562580      Node   350.54612     +0.74486167     -0.04268185             
e   0.6474006      Incl.   18.61465     +0.65909821     -0.10815642             
P   3.85           H   22.55          G   0.15           U   9                  
Residuals in seconds of arc
240302 F52  0.0   0.0     240305 I52  0.1-  0.3-    240305 K19  0.7+  1.1+
240302 F52  0.1-  0.2-    240305 H36  0.6-  0.5-    240305 958  2.2-  1.2+
240302 F52  0.2+  0.2+    240305 H36  0.2-  0.4+    240305 K19  0.5+  0.1+
240305 703  0.4-  0.7+    240305 H36  0.1-  0.1+    240305 598  0.2+  0.2-
240305 703  0.5-  2.1-    240305 O46  0.3-  2.0+    240305 598  0.2+  0.0
240305 703  0.4-  1.5-    240305 O46  1.5+  0.2+    240305 598  0.1+  0.1-
240305 703  1.0+  0.4+    240305 O46  0.3+  0.7-    240305 M45  0.4+  0.6-
240305 I52  0.1-  0.1-    240305 958  0.7-  0.1+    240305 M45  0.0   0.1+
240305 I52  0.2-  0.2+    240305 958  2.3-  0.0     240305 M45  0.3+  0.2-
240305 I52  0.0   0.4+    240305 K19  0.3-  0.5+

Ephemeris:
2024 EO1                 a,e,i = 2.46, 0.65, 19                  q = 0.8661
Date    TT    R. A. (2000) Decl.     Delta      r    Elong.  Phase     V
2024 02 04    20 19 30.0 +52 15 23   0.2056  0.9340    69.6    98.5    22.5
...
2024 02 19    15 07 29.4 +62 41 36   0.1259  1.0323   107.1    66.2    20.5
...
2024 02 27    12 16 40.5 +39 09 40   0.1298  1.0956   142.3    33.6    19.7
...
2024 03 04    11 29 09.9 +21 37 20   0.1606  1.1463   163.2    14.5    19.7
2024 03 05    11 24 04.3 +19 18 39   0.1675  1.1550   165.8    12.1    19.7
2024 03 06    11 19 30.0 +17 10 16   0.1748  1.1637   168.1    10.1    19.7
...
2024 03 12    10 59 59.4 +07 22 27   0.2251  1.2169   171.7     6.7    20.2
...
2024 03 20    10 46 37.4 -00 13 48   0.3053  1.2897   162.1    13.7    21.3
...
2024 04 04    10 39 44.8 -06 54 00   0.4827  1.4289   146.9    22.5    22.8

M. P. C. Staff               (C) Copyright 2024 MPC           M.P.E.C. 2024-E66





More information about the Iaude mailing list